Simultaneous Nadir Overpasses (SNOs) Predictions

Prediction of SNOs between GOES-14 and NOAA-20 Satellite Orbit:

Table of predicted SNOs for the next 14.0 days since TLE Epoch: 11/28/2020
Index Date Time (GOES-14) GOES-14 Lat,Lon NOAA-20 Lat,Lon Distance(km) Time Diff (sec)
1 11/29/2020 20:26:52 0.02,-104.14 -0.39,-105.84 194.59 80
2 11/30/2020 20:10:48 0.00,-104.15 0.61,-101.31 322.40 80
3 12/02/2020 08:32:38 -0.02,-104.38 0.46,-106.61 254.02 80
4 12/03/2020 08:11:14 -0.01,-104.36 -0.55,-102.08 261.41 80
5 12/04/2020 20:33:09 0.03,-104.11 -0.73,-107.36 370.93 80
6 12/05/2020 20:17:06 0.02,-104.11 0.34,-102.84 145.70 80
7 12/07/2020 08:38:55 -0.05,-104.36 0.78,-108.13 428.58 80
8 12/08/2020 08:17:30 -0.03,-104.35 -0.22,-103.59 86.95 80
9 12/10/2020 20:20:41 0.04,-104.08 -0.04,-104.35 30.68 80
10 12/11/2020 20:04:37 0.03,-104.08 0.96, -99.82 486.06 80
